Location: Newark
(48.6461°N, 4.3644°W)
Time: 14:41:37
(UTC+00:00)

Transit 4A - Pass Details

Date: 02 February 2020
Orbit: 872 x 973 km, 66.8° (Epoch: 26 February)

Event Time Altitude Azimuth Distance (km) Brightness Sun altitude
Rises 09:08:16 0° 301° (WNW) 3,493 10.3 10.5°
Reaches altitude 10° 09:12:23 10° 328° (NNW) 2,541 9.6 11.0°
Maximum altitude 09:15:00 13° 355° (N) 2,325 9.6 11.3°
Drops below altitude 10° 09:17:38 10° 22° (NNE) 2,532 10.0 11.6°
Sets 09:21:43 0° 50° (NE) 3,470 11.0 12.1°
